Theta_e
316 316 318 318 318 319 319 318 318 318 318 317 318 317 316 316 316 318 318 313 312 313 313 314 314 314 314 314 315 316 315 315 315 315 315 315 315 315 315 314 314 313 311 311 310 309 309 308 308 308 307 306 305 305 305 305 304 304 303 303 301 300 300 299 299 298 297 297 297 297 297 297 297 297 297 297 297 297 297 297 297 297 297 296 296 296
315 316 317 318 318 318 318 318 318 318 317 317 316 316 316 317 316 318 318 312 310 312 313 314 314 314 314 314 315 315 314 314 315 315 316 316 316 316 316 315 315 314 311 310 309 308 308 307 307 307 306 306 306 305 305 304 304 303 303 302 301 300 300 299 298 298 297 297 297 297 297 297 297 297 297 296 296 296 297 297 296 296 296 296 296 296
316 316 317 317 317 317 316 316 316 316 316 316 316 316 316 317 318 318 317 311 309 310 312 314 313 313 314 314 314 315 315 315 315 315 316 316 316 316 316 316 315 314 311 310 309 308 307 306 306 305 305 305 306 305 305 304 303 303 302 301 300 299 299 298 298 298 297 296 296 296 296 296 297 297 296 296 296 296 296 296 296 296 296 296 296 296
316 316 316 317 317 316 315 314 314 315 315 316 316 316 316 317 318 317 315 311 310 311 312 313 313 313 314 314 314 315 315 316 316 316 316 316 316 316 316 316 316 313 311 310 309 307 306 306 305 305 305 305 305 304 304 303 303 302 302 301 300 299 299 298 298 297 297 296 296 296 296 296 296 296 296 295 295 295 295 295 296 296 295 295 295 295
317 316 314 315 316 316 316 314 314 314 315 316 317 317 317 318 318 317 316 314 313 313 312 312 313 314 315 316 316 316 315 315 316 315 315 315 315 315 315 315 315 313 312 311 309 307 307 307 307 307 306 305 305 304 304 304 303 302 302 300 299 299 299 298 297 297 297 297 296 296 296 296 295 295 295 294 294 295 295 295 295 295 295 295 295 295
316 315 313 315 315 315 316 315 315 316 315 316 318 318 318 318 318 318 318 315 314 315 313 313 314 315 315 316 317 316 314 314 314 314 314 314 314 314 314 314 314 312 311 310 309 309 309 309 308 307 307 306 306 306 305 305 304 303 302 300 299 299 298 298 297 297 297 297 296 295 295 295 295 294 294 294 294 295 295 295 295 295 295 295 294 294
316 313 312 316 316 316 316 315 316 317 315 315 318 319 318 317 317 317 317 315 314 315 314 313 315 315 315 315 316 316 315 314 315 314 314 315 316 316 315 315 314 312 311 310 310 310 310 310 309 308 308 308 308 307 306 305 304 303 302 301 300 299 298 298 298 297 297 296 295 295 295 295 295 294 294 294 294 294 295 295 294 294 294 294 294 293
316 313 312 315 316 316 316 315 317 317 315 316 316 316 316 315 316 316 315 315 314 315 315 314 314 315 316 315 316 316 315 315 315 315 315 315 316 316 316 316 315 313 311 311 310 310 311 311 310 310 310 309 308 307 307 306 305 304 302 301 300 299 298 298 298 297 297 296 295 295 295 295 294 294 294 294 294 294 294 294 294 294 294 294 293 293
317 316 315 314 314 315 316 316 317 317 316 315 312 312 313 314 314 314 314 314 314 314 315 315 315 315 316 316 316 316 314 314 314 314 315 315 316 316 316 317 316 314 312 312 311 311 312 312 311 310 310 309 308 308 308 307 306 304 303 301 300 299 299 298 298 297 297 296 295 295 295 295 294 294 294 294 294 294 294 294 294 294 293 293 293 293
315 312 313 314 314 316 314 312 313 317 316 312 310 311 312 312 312 312 313 313 313 315 316 316 315 315 316 315 315 315 314 314 314 314 315 316 317 317 317 318 317 314 313 312 312 312 313 312 312 310 309 309 308 308 308 307 306 304 303 302 300 299 299 298 297 297 296 296 295 295 295 295 294 294 293 293 293 293 293 293 293 293 292 292 292 292
311 307 309 313 314 314 310 306 307 311 312 310 311 312 313 312 312 311 312 312 313 316 317 316 315 315 315 315 315 315 315 315 315 315 315 316 317 317 318 318 316 314 313 313 313 313 312 312 311 310 309 309 309 308 307 306 305 304 303 302 301 300 299 298 297 296 296 295 295 295 295 294 294 293 293 293 293 293 293 293 293 292 292 292 292 292
312 309 310 312 311 310 310 308 307 307 308 310 312 312 314 314 312 312 312 312 314 317 317 316 317 316 315 315 315 315 315 315 316 315 315 316 316 317 318 317 316 314 313 313 313 313 312 311 311 309 309 308 308 308 307 307 306 304 303 302 300 299 298 298 297 296 295 295 295 294 294 294 293 293 293 293 293 293 293 293 293 292 292 292 292 292
315 314 313 312 309 309 312 312 308 307 307 310 312 312 314 315 315 316 315 314 316 317 315 315 317 318 316 314 314 315 315 315 315 316 316 316 316 316 317 317 316 314 314 314 314 314 313 312 312 310 309 309 309 310 309 309 308 305 303 301 300 299 299 298 297 296 295 295 294 294 294 293 293 293 293 293 292 292 292 292 292 292 292 292 292 292
317 317 314 313 311 310 312 313 313 311 308 309 312 313 315 316 317 319 318 317 318 317 314 312 315 316 314 314 315 315 315 316 315 316 316 316 316 316 317 318 316 314 314 315 314 314 314 313 313 312 311 311 311 312 311 310 309 306 304 302 300 299 299 298 297 296 295 295 294 294 293 293 293 293 292 292 292 292 292 292 292 292 292 292 291 291
317 317 315 315 314 312 312 313 316 315 310 310 313 314 315 315 316 316 316 316 317 316 314 312 313 313 312 313 316 315 315 316 316 315 316 315 315 316 317 317 316 314 314 314 314 314 314 314 313 313 313 313 313 312 311 310 309 307 305 303 302 300 299 299 297 296 295 294 294 293 293 293 292 292 292 292 292 292 292 292 291 291 291 291 291 290
315 317 317 314 313 312 312 315 316 315 312 311 312 314 315 315 315 315 316 316 314 314 314 313 312 313 312 314 316 315 315 316 316 316 316 316 316 316 316 314 314 314 313 313 314 314 314 314 314 314 313 313 313 312 312 311 310 309 307 305 303 301 300 299 298 297 295 294 293 293 293 292 292 292 292 292 292 291 291 291 291 291 290 290 290 290
315 317 317 311 310 310 309 312 314 314 314 312 312 314 314 315 316 316 317 316 313 313 314 314 314 314 313 315 316 315 315 315 315 315 315 315 316 316 316 314 313 313 313 313 313 313 314 314 314 314 314 313 313 313 312 312 311 310 309 306 304 301 300 299 298 297 295 294 293 293 293 292 292 292 291 291 291 291 291 290 290 290 290 289 290 290
316 316 316 312 311 308 304 308 311 310 312 312 312 314 313 313 313 313 315 315 314 315 315 314 315 314 313 315 316 314 314 314 314 314 314 315 316 316 316 315 314 313 312 312 312 313 313 314 314 314 314 313 313 313 312 312 311 310 308 307 304 303 301 300 298 297 295 294 294 293 292 292 292 291 291 291 291 290 290 290 290 290 289 289 289 289
317 316 316 311 310 307 304 308 310 308 309 309 310 311 311 312 313 312 314 314 314 315 315 314 315 314 314 315 315 314 314 314 314 314 314 315 316 316 315 315 314 313 312 311 312 312 313 313 314 314 314 313 313 313 312 312 310 309 308 306 304 302 302 300 298 297 295 294 294 293 292 292 291 291 291 290 290 290 290 290 290 289 289 289 289 289
316 316 316 309 306 308 306 308 311 311 308 307 307 309 309 311 312 313 314 314 313 314 314 315 315 315 315 315 315 315 314 314 314 314 315 314 315 315 315 314 313 313 312 312 312 312 312 312 313 313 313 312 312 312 312 311 310 310 309 307 304 302 301 299 298 297 295 294 294 293 292 292 291 290 290 290 290 290 290 289 289 289 289 289 289 289
315 315 315 309 305 308 309 309 311 313 311 308 308 309 309 309 310 311 312 313 313 313 313 314 314 314 314 314 314 315 315 315 315 315 316 316 315 315 314 314 313 313 313 313 313 312 312 312 312 313 312 311 311 312 312 311 311 310 309 308 305 303 302 300 298 297 296 295 294 293 292 292 291 290 290 290 289 289 289 289 289 289 289 289 288 288
314 314 315 311 308 309 311 311 312 314 314 312 310 310 311 311 311 311 313 313 313 313 313 314 314 314 314 314 314 314 315 315 315 316 317 317 317 315 314 314 313 313 313 313 313 313 312 311 312 313 312 311 312 312 312 311 311 310 310 308 306 304 303 301 300 298 296 295 294 293 292 292 291 290 290 289 289 289 289 289 289 289 289 288 288 288
316 316 314 314 313 313 312 311 311 314 314 313 312 312 312 311 312 313 314 314 313 313 313 313 314 314 314 315 315 314 314 314 315 316 316 317 317 315 313 313 313 313 313 313 313 313 313 312 312 313 312 312 313 313 312 312 311 311 310 309 307 305 304 302 300 298 297 295 294 293 292 291 291 290 289 289 289 289 289 289 289 288 289 288 288 288
316 316 314 313 314 314 313 309 307 309 311 312 312 312 313 312 312 313 313 312 313 314 313 313 314 314 314 315 315 314 314 314 315 315 314 315 316 314 313 313 313 313 313 313 313 313 313 312 312 313 313 313 313 313 312 312 311 311 310 309 308 306 304 302 300 298 296 295 294 292 292 291 290 289 289 289 289 289 288 288 288 288 288 288 288 288
315 315 314 313 313 314 313 310 308 307 308 310 311 311 313 313 313 314 313 311 312 314 313 313 313 313 313 315 315 314 314 314 314 314 314 315 315 314 313 313 313 313 312 313 312 313 313 312 313 313 313 313 313 313 312 312 311 311 310 309 308 305 303 302 300 298 296 295 293 292 291 291 290 289 289 289 289 288 288 288 288 288 288 288 288 288
315 316 313 313 313 313 314 312 311 310 307 308 310 311 313 313 313 313 312 312 313 313 313 312 313 312 312 313 313 313 313 313 313 314 313 313 314 314 313 313 313 312 312 312 312 312 312 313 313 313 314 313 313 313 313 312 311 311 310 308 306 304 303 302 300 298 296 294 293 292 291 290 290 289 288 288 288 288 288 288 288 288 288 288 288 288
315 316 313 312 312 312 313 313 313 312 309 309 310 311 312 313 314 313 312 312 313 313 312 313 313 313 313 312 312 312 312 312 312 313 314 312 311 312 312 312 312 312 312 312 312 312 312 312 312 313 313 313 313 313 312 312 311 310 309 307 305 303 302 301 300 297 295 294 292 291 291 290 289 288 288 288 288 288 288 288 288 288 288 288 288 287
313 313 312 312 312 311 311 311 311 312 311 311 311 311 311 312 313 314 313 312 312 312 313 313 313 314 313 312 312 312 312 312 312 312 313 313 312 311 311 311 311 311 311 312 312 311 312 312 312 313 313 313 312 312 312 311 311 310 308 306 305 303 302 301 299 297 295 293 291 291 290 290 289 288 288 288 288 288 288 288 288 288 288 288 287 287
313 312 312 313 312 311 311 310 310 310 311 311 312 312 312 312 313 313 312 312 312 313 312 312 314 314 313 312 312 312 312 312 312 312 313 313 312 312 311 310 310 310 310 310 310 311 311 311 311 311 311 311 311 311 312 311 310 308 306 304 303 302 301 300 298 295 294 292 291 290 290 289 288 288 288 288 288 288 288 288 288 288 288 287 287 287
311 310 311 311 311 311 311 310 311 310 311 311 312 312 313 313 313 312 312 312 312 312 312 312 313 313 313 312 312 312 312 312 312 312 312 312 312 312 311 310 311 310 310 310 310 310 310 310 310 310 310 310 310 310 310 310 309 307 305 303 302 302 300 298 296 295 293 292 290 290 290 289 288 288 288 288 288 288 288 288 288 288 288 287 287 286
310 309 310 310 310 311 311 310 311 311 311 311 311 311 312 312 312 312 312 312 312 312 312 312 313 313 312 312 311 311 312 312 312 312 312 312 312 312 311 311 311 311 310 310 310 310 310 309 309 309 309 309 309 309 309 308 307 306 304 303 302 302 300 298 296 294 293 291 290 290 289 289 288 287 288 288 288 288 288 288 288 288 287 287 287 286
309 309 310 309 310 311 310 310 310 310 310 310 310 310 310 310 311 311 312 312 312 312 312 312 313 312 311 311 311 311 312 311 311 311 311 311 311 311 311 311 311 310 311 310 310 310 310 310 309 309 309 309 309 308 308 308 307 305 303 303 302 301 300 297 295 293 292 290 290 289 289 289 288 287 287 288 288 288 288 288 288 287 287 287 286 286
309 310 309 310 311 310 310 310 310 310 311 311 310 310 310 310 310 310 311 311 311 312 312 312 312 312 312 312 311 311 311 311 311 311 311 311 311 311 311 311 311 311 310 310 310 310 310 310 309 309 309 309 309 308 308 307 306 305 304 303 302 301 299 296 294 292 291 290 289 289 289 288 287 287 287 287 288 288 288 288 288 287 287 286 286 286
309 309 309 310 311 311 311 311 311 311 312 312 311 311 310 310 310 310 311 311 311 311 311 311 311 311 312 312 312 312 312 312 312 312 311 311 311 311 311 311 311 311 310 310 310 310 310 310 309 309 309 309 308 307 307 306 305 304 303 302 300 299 297 295 293 291 290 289 289 289 288 287 287 287 287 287 288 288 288 288 287 287 287 286 286 285
310 310 310 311 311 311 311 312 312 313 313 312 312 311 310 310 310 311 311 311 310 311 311 311 311 311 311 312 312 312 312 312 312 312 311 311 311 311 311 311 311 310 310 310 310 309 309 309 309 309 309 309 308 306 305 305 304 303 301 300 299 298 296 294 292 291 289 289 289 288 288 287 287 287 287 287 288 288 288 287 287 287 286 286 285 285
310 310 310 311 311 311 311 312 313 314 312 311 311 311 310 310 310 311 312 311 310 311 311 311 311 311 311 312 312 312 312 312 311 311 311 311 311 311 310 310 310 310 310 310 309 309 309 309 309 309 309 309 308 306 306 305 304 303 301 300 298 297 295 293 291 290 289 288 288 288 287 287 287 287 287 287 288 288 287 287 286 286 286 285 285 284
310 310 311 311 312 312 312 312 313 314 312 312 312 311 311 311 311 312 312 312 311 310 311 311 311 311 311 311 311 311 311 311 311 311 311 311 311 310 310 310 310 310 310 309 309 309 309 309 309 310 310 309 309 308 307 306 305 303 301 299 298 296 294 292 291 290 289 288 288 287 287 287 287 287 287 288 288 287 287 286 286 286 285 285 284 283
310 310 311 312 313 313 313 312 313 313 313 313 313 313 311 311 311 312 313 313 312 311 311 311 311 311 311 311 311 311 311 311 311 311 310 311 311 310 310 310 310 310 310 310 310 310 310 309 310 310 310 310 309 309 309 308 306 303 301 299 298 295 294 292 291 290 289 288 288 287 287 287 287 287 287 287 287 287 286 286 285 285 284 284 283 283
311 310 310 311 312 313 313 314 314 313 313 313 312 312 312 313 312 312 313 314 313 312 312 311 311 312 311 311 311 311 311 312 311 311 311 311 311 310 310 310 310 310 310 310 310 310 310 310 310 310 310 310 310 310 310 309 306 303 301 300 298 296 294 292 291 290 289 288 287 287 287 287 287 287 287 287 287 286 286 285 284 284 284 283 283 282
311 310 310 311 312 312 313 314 314 313 314 313 312 311 312 312 312 314 314 315 313 311 312 312 312 312 311 311 311 311 312 311 311 311 311 311 311 310 310 310 310 310 310 310 310 310 310 309 309 309 310 310 310 309 310 309 306 304 302 300 298 296 294 293 291 289 288 287 287 286 287 287 287 287 287 287 287 286 285 284 284 283 283 282 282 281
311 311 310 311 312 311 312 313 313 313 314 313 312 311 312 312 313 314 314 315 312 312 312 311 311 311 311 311 310 311 311 311 310 311 311 310 310 310 310 310 309 309 309 309 309 309 309 309 309 309 309 309 309 309 309 308 306 304 302 300 298 297 295 293 290 289 287 287 287 286 287 287 287 287 287 287 286 286 285 284 283 282 282 281 281 281
312 312 311 312 312 311 312 312 313 313 313 312 311 311 312 313 313 313 313 312 312 312 312 311 311 311 311 311 310 310 311 310 310 310 310 310 310 310 310 309 308 308 308 308 308 309 309 308 308 308 308 308 308 308 308 307 306 304 302 300 298 297 294 291 290 288 287 287 286 286 287 287 287 287 287 287 286 285 284 283 282 282 281 280 280 280
312 312 312 312 312 312 312 312 313 313 313 312 311 312 312 312 313 313 312 311 312 311 311 311 311 311 311 311 310 310 310 310 310 310 309 309 309 309 309 309 309 308 308 308 308 308 308 308 308 307 308 307 307 307 307 306 305 304 302 300 298 296 293 291 289 288 287 287 286 286 287 287 287 287 287 287 286 285 283 282 281 281 280 280 280 279
313 313 313 312 312 312 312 312 313 313 313 312 312 312 312 312 312 311 312 312 311 311 311 311 311 311 311 310 310 310 310 309 309 309 309 309 309 309 309 309 309 309 308 307 307 307 307 307 307 307 306 306 306 306 305 305 304 302 300 299 297 294 292 290 289 287 287 286 286 286 287 287 287 287 287 286 285 284 282 281 281 280 280 279 279 279
311 310 309 309 310 311 312 312 311 311 311 311 311 311 311 312 312 312 312 311 311 312 311 311 311 311 311 310 310 310 309 309 309 309 309 309 309 309 309 309 309 309 308 307 307 306 306 306 306 305 305 305 305 305 304 303 302 301 300 298 296 294 293 290 288 287 287 286 286 286 287 287 287 287 286 286 284 283 281 281 280 280 279 279 278 278
307 306 305 307 308 309 311 311 311 311 311 311 311 311 311 312 312 311 311 310 310 310 310 310 310 310 310 309 309 309 309 309 309 309 309 309 309 308 308 308 308 308 308 307 306 306 305 304 304 304 304 304 304 303 303 302 301 301 300 299 296 295 293 290 288 286 286 286 286 287 287 287 287 286 286 284 283 282 281 280 280 279 278 278 277 277
304 304 304 304 305 306 309 311 310 309 309 310 310 310 310 310 309 309 308 308 308 308 307 307 307 307 307 307 306 306 307 307 307 307 307 307 308 308 307 307 308 307 307 307 306 306 304 303 302 303 303 303 303 302 301 300 299 298 297 297 296 294 291 289 287 286 286 286 286 287 287 287 286 286 285 283 282 280 280 279 279 278 277 277 277 277
301 301 300 300 301 302 303 304 303 303 305 307 307 307 308 308 308 308 307 307 307 306 306 306 306 307 307 306 306 306 306 306 306 306 306 306 306 306 306 306 306 306 305 305 304 304 303 302 302 302 302 302 302 301 300 298 297 295 294 294 295 293 290 287 287 286 286 286 287 287 287 286 286 285 284 282 281 280 279 279 278 277 277 277 277 277
297 297 297 297 298 298 298 298 299 300 302 303 305 307 307 307 306 306 306 306 307 306 306 306 306 306 306 306 305 305 305 305 305 305 305 305 305 306 306 305 305 305 305 305 304 304 303 303 302 302 302 301 301 300 298 297 296 295 293 292 292 291 289 286 286 286 286 286 287 287 286 286 286 285 283 281 280 279 278 278 277 277 277 276 276 276
295 295 295 295 296 296 297 297 298 299 299 300 304 307 306 304 304 304 304 304 304 304 305 305 305 305 304 304 304 305 305 305 306 306 305 305 305 305 305 305 305 305 305 305 304 304 303 303 302 301 301 300 299 298 297 296 295 294 292 291 290 290 288 286 285 286 286 286 287 286 286 286 285 283 282 280 279 279 278 277 276 276 276 276 276 276
295 295 296 296 296 297 298 298 299 299 300 302 303 303 301 299 299 300 299 300 300 300 301 301 302 302 303 303 303 304 305 305 305 305 305 304 304 304 304 304 304 304 304 304 304 304 304 303 302 300 300 299 298 297 296 295 294 293 291 289 288 288 287 286 286 286 286 286 286 286 286 286 284 282 280 279 279 278 278 277 276 276 276 276 275 275
Wind_Speed
6 5 7 10 11 12 12 13 16 16 13 11 10 9 12 13 12 16 11 5 8 6 10 16 17 19 20 19 19 23 26 24 25 26 29 32 29 25 25 26 25 24 26 28 27 28 28 30 33 36 39 41 42 43 45 47 47 47 46 44 42 40 39 39 38 37 35 35 34 34 33 31 30 29 26 24 23 23 22 19 16 14 13 12 12 12
5 7 12 16 15 12 8 7 12 14 12 10 11 10 11 11 12 15 9 5 7 5 10 14 17 19 18 17 19 22 22 21 24 25 27 30 27 26 26 24 22 19 20 22 23 25 27 28 30 33 37 40 41 43 45 47 47 47 46 44 42 41 41 40 40 38 36 36 36 35 33 32 31 29 27 26 25 24 22 19 17 15 14 12 13 13
6 10 18 18 9 3 2 4 8 12 12 10 8 7 9 10 11 13 6 5 6 4 8 12 15 17 18 18 20 21 20 22 30 30 26 26 24 26 26 21 17 17 19 20 21 24 25 26 27 30 34 37 40 42 44 45 46 46 46 44 43 42 42 41 40 38 37 37 37 36 34 33 32 30 28 28 27 24 22 20 18 16 14 13 14 15
8 9 14 12 5 5 6 4 6 9 9 8 7 7 9 9 8 9 3 3 5 7 9 13 13 15 16 18 20 25 26 25 30 29 25 25 25 28 27 17 13 17 19 19 20 22 23 24 25 27 31 33 37 42 44 45 46 46 46 45 44 44 43 42 40 39 39 39 39 37 35 33 32 29 28 27 26 24 22 20 18 16 15 15 15 16
13 8 1 2 4 7 8 6 7 8 6 8 10 10 11 11 11 11 4 3 7 10 7 9 12 12 12 13 14 16 18 17 20 20 19 24 30 33 29 21 17 18 17 18 19 20 21 21 23 25 28 31 36 40 43 44 45 46 46 45 46 45 44 42 41 41 41 41 39 37 35 33 31 29 29 28 26 25 23 21 18 17 16 16 17 17
16 7 5 3 4 6 8 7 9 8 7 9 12 14 16 15 14 14 8 7 8 7 2 3 10 9 5 8 8 5 6 8 10 11 13 21 27 27 26 24 21 20 18 18 19 19 19 19 21 24 27 30 34 37 39 41 43 44 45 45 46 46 44 43 43 42 42 40 39 37 36 34 32 31 31 29 27 26 24 21 19 17 17 18 18 18
8 3 4 6 7 7 8 10 11 10 8 8 5 7 12 13 13 12 9 5 6 7 1 3 8 10 3 6 9 5 6 8 7 7 11 17 19 20 25 24 21 21 19 19 21 20 19 20 22 24 25 27 28 31 33 37 40 41 43 45 46 46 45 44 44 43 42 40 39 38 37 35 35 33 32 31 29 27 24 21 20 18 19 19 19 19
5 6 4 6 7 7 9 10 10 11 8 5 1 3 2 6 9 8 6 6 6 9 6 4 4 12 10 7 11 11 10 10 10 10 13 16 19 23 27 25 23 23 19 20 22 21 20 21 22 22 22 22 22 25 29 32 34 37 41 44 45 46 46 45 44 43 42 41 40 40 38 37 36 35 34 32 30 27 24 22 21 20 20 19 19 19
4 6 7 9 7 8 8 4 4 12 9 1 3 3 3 1 3 3 4 6 7 9 8 7 7 9 12 5 11 13 13 12 14 15 15 16 20 22 23 23 24 23 19 19 21 21 21 20 20 20 19 19 21 24 25 27 30 34 38 42 44 45 45 45 44 43 43 42 42 41 40 39 38 36 35 33 29 27 24 23 21 20 20 19 18 19
3 2 3 8 8 7 4 4 3 6 5 1 4 4 5 2 1 2 4 5 6 9 10 8 10 7 13 4 9 10 9 11 13 13 14 16 20 20 19 21 22 20 18 19 21 21 21 20 19 19 19 20 22 24 23 25 29 33 37 40 43 44 44 45 45 44 44 44 43 43 41 40 39 37 35 33 30 28 25 23 22 21 20 19 19 19
1 4 1 4 6 2 5 6 6 3 2 4 4 2 2 3 2 3 5 3 5 11 10 12 16 11 11 2 8 7 8 11 10 10 12 13 17 17 16 20 22 20 19 20 23 22 22 21 21 22 22 23 23 23 24 26 29 33 36 38 41 42 43 45 45 45 45 45 45 44 42 41 40 38 36 34 31 29 26 24 22 21 20 19 19 20
6 5 3 3 3 4 6 4 4 4 1 2 2 2 2 4 3 3 4 3 6 11 5 12 20 17 11 4 6 6 8 13 11 8 10 10 12 15 15 18 21 20 21 24 25 24 25 26 26 26 26 25 24 24 25 26 29 33 35 38 41 42 43 45 46 47 47 47 46 45 43 41 40 39 37 35 32 30 27 25 23 22 21 20 20 21
7 8 8 4 4 7 6 2 2 2 2 4 4 4 3 4 4 4 5 4 8 10 2 9 13 13 13 11 8 9 8 11 11 9 10 10 12 15 15 17 20 21 23 27 27 27 28 29 28 28 28 26 24 23 23 25 28 32 35 38 41 42 43 45 47 48 49 48 48 46 44 42 41 40 38 36 33 31 28 26 25 23 21 20 21 21
4 3 9 7 3 11 12 7 5 4 7 9 7 7 6 5 5 6 6 6 9 9 3 6 4 7 9 9 13 18 14 13 13 13 14 15 17 18 13 14 18 21 27 30 30 30 30 29 29 28 27 25 23 22 23 24 27 31 35 38 40 42 43 45 47 48 49 50 49 47 44 43 42 41 39 37 34 31 29 27 25 23 22 21 21 20
6 5 9 10 4 13 18 13 6 3 7 10 7 6 7 6 6 7 7 8 7 7 2 5 2 5 5 2 8 15 15 16 16 16 18 21 25 21 14 14 17 21 29 33 31 32 30 29 28 27 26 24 23 23 23 25 28 30 33 36 39 41 44 46 48 49 50 51 50 47 45 44 43 42 40 37 34 32 29 27 25 23 22 21 20 20
8 9 8 7 3 13 15 9 5 4 4 7 5 6 7 6 7 8 9 8 4 7 6 5 4 6 7 7 5 8 10 15 16 16 17 21 26 23 18 19 19 21 29 34 34 33 32 30 28 27 26 24 24 24 24 25 27 28 31 35 38 41 44 46 48 50 51 51 50 49 47 45 44 42 40 37 35 32 29 27 25 23 22 21 20 21
6 5 6 5 1 7 5 2 5 4 3 5 6 7 4 1 3 7 10 5 0 7 10 6 7 8 10 13 9 12 11 13 14 15 17 20 23 23 22 24 24 24 28 33 35 34 33 31 29 27 26 25 25 24 23 24 26 27 30 33 37 41 44 47 49 50 51 52 51 50 48 46 45 43 40 37 34 32 29 27 25 24 23 21 21 21
5 4 3 4 2 2 2 3 1 2 1 5 5 4 2 2 1 3 7 4 4 9 10 9 13 12 10 9 6 14 15 14 15 15 17 17 17 18 21 25 28 29 27 29 33 34 34 34 31 29 27 26 25 24 22 24 26 28 30 33 37 41 44 47 50 51 52 53 52 51 49 47 45 43 39 36 34 31 29 27 25 24 23 22 22 22
2 3 3 2 1 2 3 1 3 3 3 1 1 1 1 2 4 5 6 6 7 9 9 13 17 14 12 8 4 12 16 15 17 17 16 14 12 14 21 26 28 29 27 28 31 32 34 35 32 30 29 27 26 24 24 26 27 29 31 34 38 41 44 47 50 52 53 54 53 52 50 48 45 42 39 36 33 31 29 27 25 24 23 22 22 22
3 4 5 1 2 3 4 4 5 6 4 0 2 2 1 2 3 4 5 5 7 8 9 13 15 13 9 7 8 11 15 16 17 16 14 14 13 16 22 27 29 29 28 30 32 34 35 34 31 31 31 28 26 25 26 27 28 29 32 35 39 42 44 47 50 52 53 54 54 53 50 48 45 42 39 36 33 31 29 27 25 24 23 23 23 22
3 4 6 0 1 3 5 7 9 10 9 6 5 6 5 3 1 3 5 6 7 7 7 8 12 13 4 1 6 8 12 15 16 13 11 10 13 18 23 28 30 30 29 29 31 34 35 34 33 34 32 28 27 28 28 28 28 30 34 37 40 43 45 47 50 52 54 54 54 53 51 48 45 42 39 36 33 31 29 27 25 24 23 23 22 22
4 5 8 4 2 7 8 9 12 13 11 10 9 9 9 9 5 4 8 7 5 6 8 8 11 15 5 4 2 5 6 8 9 9 7 6 10 16 21 25 27 30 32 30 29 32 33 33 35 36 35 31 31 32 31 30 30 31 35 38 41 44 45 47 49 52 54 55 55 54 51 48 45 42 39 36 34 31 29 27 26 24 23 23 22 22
7 3 6 8 6 7 6 3 3 4 3 4 6 9 9 9 9 9 9 6 5 6 9 10 12 16 9 1 3 4 1 4 6 6 6 6 12 17 20 24 25 27 29 27 26 29 32 31 32 34 35 34 35 36 34 33 32 33 36 40 43 45 46 47 49 51 53 54 55 54 52 49 46 42 39 36 34 32 30 27 26 24 23 22 22 23
4 2 5 8 6 5 3 2 2 3 0 3 6 8 9 10 11 10 6 4 3 6 9 10 11 14 11 4 6 8 8 9 10 10 11 11 14 19 22 23 22 21 22 23 23 25 29 31 32 33 34 36 40 40 38 36 35 36 38 42 44 46 46 47 49 51 53 54 55 54 52 49 46 42 39 37 35 32 30 28 25 24 23 21 22 23
5 3 6 6 6 7 5 4 2 0 3 7 8 9 11 12 12 8 5 3 5 13 17 12 9 12 10 4 6 12 13 10 11 15 18 16 15 19 22 22 20 19 20 22 23 24 27 31 34 35 36 40 43 42 41 39 38 38 41 44 46 47 47 48 49 51 53 55 55 54 52 49 46 43 40 38 35 32 30 27 25 23 22 21 22 24
7 4 6 7 8 8 9 11 5 1 4 6 7 11 12 14 15 10 7 6 10 18 20 13 12 15 13 11 14 19 16 10 11 14 15 16 17 18 20 21 22 23 23 23 25 27 28 31 36 38 39 41 44 44 43 42 40 41 43 46 47 47 47 48 49 51 53 55 55 54 52 50 47 43 41 38 35 32 29 27 25 23 21 22 23 23
3 2 9 13 14 12 12 16 11 4 5 7 9 13 12 14 17 12 8 11 14 14 13 15 19 19 17 18 23 25 21 17 19 17 11 13 17 19 22 24 25 26 27 25 26 28 29 32 35 37 37 40 43 45 46 44 43 44 45 46 47 48 48 48 49 51 53 55 55 54 53 50 46 43 41 38 34 31 28 26 24 22 21 22 23 23
1 4 11 16 18 17 16 20 21 19 14 11 11 14 14 14 15 13 15 18 15 10 11 18 23 20 15 17 24 28 25 22 23 21 18 19 19 20 23 24 25 27 27 26 27 29 31 33 34 35 37 39 42 46 47 46 45 45 45 45 46 48 49 49 50 51 54 55 55 54 53 49 46 43 40 37 34 30 27 25 23 22 22 23 22 21
2 6 9 12 15 15 16 20 23 25 23 17 14 15 16 16 16 19 25 20 12 13 17 18 21 20 15 17 24 26 24 23 26 30 31 30 26 20 15 15 22 26 26 27 30 32 34 35 35 37 39 40 43 45 47 47 47 47 47 46 47 49 50 50 50 52 54 55 55 55 52 48 46 43 40 37 33 29 27 25 23 22 22 22 21 20
3 5 9 12 14 15 17 19 22 24 22 19 18 17 14 15 20 26 24 15 14 23 25 22 24 23 17 18 24 28 32 33 34 38 37 32 30 25 17 19 30 33 29 29 31 33 35 37 38 38 39 41 43 45 47 49 51 50 49 48 47 48 49 50 51 52 54 55 55 54 52 49 46 44 40 36 32 29 26 24 23 23 22 21 20 19
5 9 11 11 12 14 19 22 24 22 21 21 21 18 17 22 26 25 18 12 16 23 23 22 23 19 16 20 25 31 37 37 34 33 31 32 37 34 25 27 35 37 34 31 31 31 33 35 36 36 37 40 43 44 47 49 50 50 49 48 47 48 49 50 51 53 55 55 55 54 52 49 47 43 40 36 32 29 26 24 23 23 22 20 18 18
5 9 9 9 10 12 16 21 21 19 20 22 20 20 24 28 26 21 17 17 19 19 19 20 16 13 15 21 24 26 29 30 30 27 24 33 42 36 27 28 33 33 32 31 30 30 31 33 34 35 37 39 41 43 45 47 48 49 48 48 47 47 48 49 51 53 55 55 55 54 51 49 46 43 39 35 32 29 26 24 24 23 21 19 18 18
5 6 6 8 9 11 16 21 18 14 14 14 17 26 32 29 24 22 24 26 26 21 17 15 12 12 16 19 21 23 26 27 26 21 21 31 37 32 28 30 31 31 31 31 31 33 34 34 35 36 36 36 37 39 41 42 45 47 46 46 46 46 47 49 51 53 54 54 54 52 50 49 46 43 39 35 31 28 26 25 24 22 20 18 17 18
8 7 7 7 7 9 16 18 14 11 11 13 18 23 25 25 27 28 28 29 28 23 19 17 16 18 20 21 21 23 27 30 27 24 27 34 34 29 29 32 33 34 35 36 36 37 37 36 35 34 32 30 31 32 35 38 41 42 43 43 44 44 46 48 50 52 53 53 53 52 50 48 45 42 38 35 31 28 26 25 23 21 19 18 17 18
10 9 8 7 6 7 10 11 11 10 12 14 13 12 15 23 29 29 28 28 29 28 25 24 23 24 26 26 26 27 33 38 35 30 35 42 39 31 30 35 40 40 39 39 38 37 35 32 30 29 27 25 25 26 29 32 35 38 40 41 41 42 44 46 49 50 51 52 52 51 50 48 45 41 37 34 30 28 27 25 22 20 18 18 17 17
13 11 8 7 7 6 5 9 11 7 3 3 5 10 15 19 20 20 22 27 29 28 27 25 25 27 29 28 29 36 43 40 31 29 39 48 45 36 33 37 44 46 43 40 37 35 33 30 27 25 23 21 20 21 23 26 30 34 37 38 39 40 42 44 47 49 50 51 51 50 49 47 44 40 37 33 30 28 26 24 21 19 18 18 17 16
15 12 7 8 9 7 7 10 11 9 4 4 7 12 14 14 16 17 19 22 24 21 22 24 25 27 30 28 31 41 44 30 16 21 40 52 48 40 38 41 44 47 45 40 36 34 32 29 24 20 18 18 17 17 18 21 25 29 33 35 37 39 41 44 47 49 51 51 51 50 48 46 42 39 35 32 29 28 25 22 20 19 18 17 16 15
17 14 11 12 10 8 9 9 8 10 9 9 14 17 17 18 22 23 21 18 13 10 14 21 24 27 28 26 28 33 30 17 7 14 35 52 49 38 35 39 42 43 43 39 33 30 28 25 20 18 18 18 18 17 17 18 21 25 30 33 36 39 42 45 48 50 52 52 51 49 47 43 40 37 33 30 28 25 22 21 19 18 17 17 15 14
21 16 14 13 8 9 11 8 8 11 9 11 17 20 22 25 24 21 20 11 6 8 17 23 26 27 23 22 24 23 16 11 8 14 33 51 48 35 30 34 37 38 36 33 29 27 26 22 20 20 20 21 22 21 20 20 21 25 29 32 35 39 43 46 49 51 53 53 51 49 45 41 37 34 31 28 25 22 20 20 18 17 17 16 14 14
21 13 13 14 10 11 14 9 6 7 5 9 16 18 23 29 25 18 15 5 8 17 26 26 26 27 23 20 21 16 11 12 13 21 38 47 40 32 33 34 34 34 32 30 28 27 26 25 23 23 24 24 25 24 23 23 24 26 29 32 35 39 42 46 49 51 53 53 51 48 44 40 36 32 29 26 23 21 20 18 17 17 16 14 13 13
15 10 12 14 11 13 16 11 8 8 5 8 13 17 23 26 20 15 13 9 11 21 29 28 26 28 27 22 16 13 18 26 30 34 42 42 35 34 38 37 33 32 30 30 29 27 28 28 27 26 26 26 26 25 25 25 26 28 30 33 36 39 41 45 48 51 53 52 50 47 43 39 35 32 28 25 22 21 20 18 17 17 15 13 13 13
10 8 10 13 13 13 13 11 10 10 7 11 17 22 23 17 10 11 18 22 23 23 26 29 28 29 31 28 24 25 32 39 42 39 38 39 38 38 39 37 34 34 33 32 31 29 30 32 29 27 27 27 27 28 28 27 28 30 32 35 37 38 41 45 49 51 52 51 49 46 42 39 35 31 28 25 23 21 20 18 17 16 14 13 13 12
9 8 9 10 10 10 10 9 10 7 10 19 23 20 16 13 13 16 19 25 31 30 27 28 29 31 33 32 33 37 38 39 40 40 38 39 37 35 36 37 37 38 37 37 35 34 35 34 32 30 29 29 30 30 30 31 32 33 34 36 37 39 42 46 49 51 52 51 49 46 42 39 35 31 28 25 23 21 19 18 18 16 14 13 12 10
7 7 6 5 6 8 8 8 9 6 10 23 23 13 13 22 31 32 24 19 26 30 28 26 28 32 34 32 33 36 36 35 37 38 38 36 33 33 35 35 37 39 39 39 39 38 36 35 33 32 30 30 32 33 34 35 35 35 37 38 39 41 44 47 49 51 52 51 49 47 43 39 36 32 29 26 24 21 20 19 18 15 13 12 10 9
3 4 7 6 4 6 6 5 5 9 8 14 20 20 24 32 35 35 30 25 26 30 30 27 28 32 34 34 33 33 33 35 37 37 36 35 33 33 31 31 35 39 38 38 38 37 35 34 34 33 32 32 33 35 36 37 37 38 40 40 41 43 45 48 51 53 53 52 50 46 43 39 36 33 29 26 23 21 20 19 17 14 12 11 9 8
6 8 7 5 6 8 9 7 6 9 13 14 17 21 25 27 25 23 24 23 23 27 30 29 28 30 33 32 29 27 28 31 32 33 32 32 31 30 28 31 36 38 38 38 37 36 36 35 34 34 34 35 35 36 38 39 40 41 41 41 42 44 46 49 52 54 54 53 50 46 43 40 36 32 28 25 23 21 20 18 16 13 11 10 8 8
7 8 7 7 10 10 6 7 11 14 17 20 23 27 29 30 28 25 22 22 24 28 32 34 35 35 36 35 32 30 31 34 35 35 35 33 31 30 29 31 35 36 37 38 37 37 36 36 36 37 38 38 38 38 39 40 41 42 42 42 43 45 47 50 54 56 56 54 50 47 43 39 35 30 27 25 23 21 20 18 14 12 10 9 8 7
10 13 12 9 11 11 10 11 18 26 29 28 25 24 24 24 25 24 24 25 28 31 34 36 36 35 34 35 35 32 33 35 35 36 35 34 33 32 31 32 32 33 34 35 36 36 36 37 39 40 41 42 41 39 40 41 42 43 44 43 44 46 49 52 55 57 57 54 50 47 43 38 33 29 27 25 23 21 20 16 13 11 10 8 7 6
15 16 13 11 12 14 15 16 18 22 25 26 22 18 19 23 25 27 28 28 29 31 32 32 34 34 33 36 37 35 34 35 36 36 36 36 36 36 36 35 35 35 36 37 37 37 38 40 42 42 43 44 42 40 41 42 43 45 46 46 46 47 51 55 58 58 56 53 50 46 41 37 32 29 27 25 23 22 19 16 13 12 10 8 6 6
13 13 11 11 12 12 12 13 15 14 14 19 22 22 24 27 26 25 27 29 29 30 31 31 34 36 36 37 37 36 36 37 37 38 39 39 40 41 41 40 40 41 41 41 40 40 41 42 43 43 44 44 42 42 42 44 46 48 48 48 48 49 54 58 60 58 56 53 49 45 40 35 32 29 27 25 24 22 19 16 14 13 10 8 6 4
12 12 11 10 12 14 15 19 22 18 13 16 22 23 26 30 30 28 30 32 33 34 33 31 32 34 36 37 37 36 36 37 38 39 39 41 43 44 45 44 43 44 45 45 44 44 44 44 44 44 44 44 44 44 44 46 48 49 49 50 49 51 56 60 61 60 57 52 48 43 37 34 31 29 28 26 24 22 19 17 15 13 11 8 5 3
Wind_Direction
192 223 233 237 240 239 236 227 231 249 269 283 285 280 273 275 271 272 277 175 183 230 245 248 255 258 262 265 264 266 268 269 270 267 264 265 268 266 259 254 245 234 239 247 250 252 248 243 239 236 233 231 231 231 232 231 230 231 232 231 229 229 230 229 228 227 226 225 226 229 231 232 234 237 238 238 239 239 239 240 242 248 257 268 280 291
193 228 238 242 250 258 266 258 249 256 267 268 266 272 271 266 266 273 274 162 163 220 258 263 265 264 262 263 264 263 263 263 263 262 264 268 270 268 263 257 249 235 234 243 244 243 242 239 236 234 232 231 232 231 231 231 230 230 231 231 230 230 229 229 229 228 227 228 229 231 232 233 235 237 237 236 236 237 237 238 241 248 258 268 280 290
214 237 246 247 252 261 277 277 262 258 259 258 253 259 264 263 271 274 259 146 157 216 266 276 276 273 269 264 261 256 253 252 254 258 264 268 270 268 265 261 246 223 224 239 238 236 237 237 235 233 233 233 233 233 232 231 231 230 231 230 230 229 229 229 229 228 228 228 229 230 230 232 235 236 236 236 236 235 234 236 241 249 258 268 279 287
222 240 251 248 223 232 247 229 238 250 246 240 237 244 254 258 271 271 243 143 201 226 265 287 284 275 267 256 250 248 245 246 252 258 260 259 261 263 263 262 235 210 221 238 232 231 234 235 236 232 232 232 231 231 230 230 230 230 230 230 229 229 229 229 229 228 228 228 229 229 231 234 236 237 236 235 234 233 233 236 242 250 258 269 277 283
239 242 197 158 182 231 243 210 213 236 238 229 226 235 250 253 257 264 296 345 269 245 251 292 288 270 259 247 239 238 237 240 247 253 255 253 255 260 262 259 236 213 223 237 228 229 236 238 238 233 230 230 229 230 230 230 231 230 230 229 229 230 230 229 229 229 229 229 230 230 232 234 235 236 234 232 231 231 234 238 243 250 259 267 274 279
246 230 126 161 194 206 228 229 217 219 245 241 222 228 244 257 266 273 307 346 304 274 197 342 304 277 230 230 231 195 198 220 231 237 246 251 253 256 259 256 240 223 226 237 233 233 241 243 238 231 227 227 227 229 230 231 232 232 231 230 230 231 230 229 229 230 231 231 231 231 231 232 233 233 232 232 232 233 235 240 244 250 257 264 271 277
242 179 131 219 220 201 225 248 230 208 239 251 228 240 248 259 270 277 296 307 283 283 265 56 311 286 241 223 236 223 212 206 197 216 236 245 247 250 256 254 243 233 229 230 232 235 238 235 230 226 223 223 224 226 229 230 232 233 233 232 232 232 231 231 231 232 232 231 231 231 232 234 234 234 233 232 233 235 238 240 244 250 256 264 270 277
191 172 172 213 218 218 226 248 227 197 223 248 38 358 261 251 262 262 274 261 261 290 280 177 238 276 274 234 223 231 234 219 206 220 233 240 242 246 253 256 249 243 236 230 229 231 231 227 223 221 219 219 219 222 225 227 230 232 233 233 233 232 232 233 233 233 233 232 232 232 232 233 234 234 234 234 234 236 238 241 245 251 257 263 269 276
149 182 193 185 194 223 223 257 206 189 214 260 70 36 67 136 254 230 250 260 272 291 275 200 181 263 282 234 196 210 222 227 225 230 240 246 245 242 243 250 253 247 240 236 229 225 224 221 218 218 216 216 215 218 223 225 228 230 231 232 232 233 234 234 234 234 233 233 233 233 233 234 235 234 234 235 235 236 238 241 247 252 257 262 268 276
63 147 200 182 194 225 200 32 12 198 210 132 111 84 77 100 141 183 245 273 281 274 261 211 169 232 283 253 170 191 208 221 227 231 239 243 246 244 235 239 246 243 238 230 221 218 219 217 217 215 213 213 215 218 221 224 226 228 230 231 232 233 234 234 234 233 233 233 233 233 234 234 234 234 233 234 234 236 239 241 246 251 256 263 270 275
120 95 44 211 213 210 99 63 16 15 113 130 139 118 122 203 192 212 241 263 277 265 248 203 180 206 274 263 147 178 198 201 211 222 230 236 244 243 229 227 233 236 232 218 209 213 215 216 217 215 214 214 215 216 219 222 226 228 229 230 231 232 233 233 233 233 232 232 232 233 233 234 233 233 232 233 234 236 239 241 245 249 254 262 268 273
208 169 189 206 173 116 103 91 47 47 100 167 171 215 246 233 207 219 224 171 245 264 231 182 186 199 235 230 155 190 199 192 194 213 234 244 248 242 227 224 231 232 224 209 203 208 212 215 216 214 215 214 213 214 217 223 227 228 229 229 230 230 231 232 232 232 232 231 232 232 232 232 231 232 232 233 234 236 238 241 244 248 253 259 264 269
216 206 191 154 139 170 171 149 114 103 184 206 195 203 247 258 241 239 225 193 232 255 195 164 191 207 233 248 241 249 235 202 198 212 241 255 252 246 234 229 235 230 216 204 202 206 209 212 213 213 213 212 212 214 218 227 230 229 229 229 229 230 231 232 232 232 232 231 232 231 231 230 230 231 231 232 235 236 238 240 243 247 251 257 262 267
225 218 173 163 176 187 187 194 207 191 181 193 189 187 209 239 258 259 246 239 246 252 207 142 184 239 257 259 236 240 240 217 212 217 231 244 247 247 236 226 234 227 211 203 202 206 208 212 214 213 214 214 214 216 221 229 231 230 230 229 230 230 232 233 233 232 232 231 231 230 230 230 229 230 230 232 234 236 237 239 242 246 250 255 260 265
247 273 173 171 169 170 187 211 214 136 171 195 192 195 215 226 245 259 255 257 272 288 260 145 172 255 279 298 199 221 231 218 217 221 224 236 242 242 232 223 231 224 210 204 205 209 210 212 215 215 217 218 216 217 223 228 231 231 231 230 230 230 232 234 233 233 233 231 231 229 229 229 229 229 230 232 234 235 237 238 241 245 249 253 257 263
244 263 165 142 124 159 182 212 172 116 178 194 180 204 230 231 227 248 269 273 306 316 280 200 222 256 274 285 213 193 221 211 211 223 228 237 240 236 231 232 235 227 215 208 207 210 211 212 215 217 218 218 216 219 225 230 232 233 233 231 231 231 232 234 234 234 233 232 231 229 228 229 228 228 229 230 232 234 235 237 240 244 246 250 256 263
238 267 136 116 48 161 177 220 168 183 201 159 177 203 211 291 232 246 271 286 164 276 272 243 257 267 273 276 226 181 204 207 202 220 230 237 238 232 230 234 238 236 226 217 212 211 212 213 216 219 220 220 219 221 228 234 236 236 234 232 230 230 232 234 234 234 233 232 231 229 228 228 228 228 228 230 232 233 234 235 238 242 245 250 257 263
240 279 171 165 235 167 32 357 166 261 252 142 186 204 112 50 329 250 266 275 246 260 271 266 270 273 275 280 201 175 198 204 201 219 230 233 233 230 229 234 241 243 236 228 222 216 214 216 217 220 223 225 223 225 232 239 239 237 235 233 230 230 232 233 234 234 233 232 231 229 228 228 227 227 228 229 230 230 232 234 236 240 244 251 258 264
218 261 230 171 293 124 104 244 198 229 243 165 298 286 90 211 207 204 230 250 256 257 268 274 276 272 260 266 217 187 195 199 206 218 225 224 222 227 231 235 243 246 241 238 234 227 221 220 220 223 226 226 225 226 234 239 239 239 236 233 232 232 233 234 233 233 232 232 232 230 229 228 227 226 226 227 228 229 230 232 235 239 245 252 259 265
187 227 245 27 8 127 141 223 202 184 196 170 318 261 198 246 223 210 215 228 244 248 265 278 281 276 256 254 248 210 192 198 210 216 219 220 221 224 228 235 242 243 241 242 244 239 232 226 227 230 231 230 227 227 234 239 241 242 239 235 233 232 233 233 233 233 232 232 231 230 229 227 226 225 225 226 226 227 229 231 234 239 246 254 261 268
165 212 236 6 33 197 194 207 196 188 181 176 220 217 194 199 253 287 246 232 237 244 255 264 271 274 263 172 262 229 192 202 213 215 215 213 217 223 228 235 241 242 241 243 247 248 243 236 236 239 240 236 229 229 235 240 243 244 241 238 235 234 234 233 233 233 233 232 232 230 228 227 226 224 224 224 224 225 227 229 234 239 247 255 263 271
186 205 223 210 189 218 220 205 200 202 189 180 195 199 195 189 183 238 240 226 218 231 243 246 258 263 249 88 302 236 190 216 227 217 209 204 219 227 232 239 245 246 246 246 249 254 253 246 242 245 248 242 231 230 236 241 245 247 244 241 237 236 235 234 233 233 233 232 231 229 228 226 225 224 223 222 222 223 225 228 234 240 249 257 266 273
195 171 222 231 225 227 230 208 219 239 214 209 211 203 202 191 187 214 227 223 210 215 236 243 252 260 257 193 269 254 250 291 266 220 208 219 224 228 237 246 249 248 249 252 257 261 261 255 248 247 248 242 232 231 236 242 247 249 247 244 240 238 237 235 234 233 233 232 230 229 227 225 224 222 221 220 220 222 224 228 234 242 250 259 267 273
170 99 222 246 271 275 266 101 43 6 253 236 235 215 208 203 205 219 232 244 232 216 229 238 244 259 265 237 238 269 282 274 257 239 240 243 232 234 244 244 240 242 249 254 258 262 261 255 248 245 243 238 232 230 234 241 247 250 249 246 242 239 237 235 234 233 232 231 229 227 226 224 222 220 218 218 219 220 223 228 235 243 252 260 267 271
171 186 206 232 263 266 265 238 223 313 215 227 234 221 219 220 218 230 251 260 252 239 237 244 248 254 262 238 231 262 265 246 235 241 246 249 241 236 238 234 232 240 248 250 252 255 257 253 246 243 241 236 232 232 236 241 247 251 251 248 244 239 236 235 234 232 231 230 227 225 224 222 220 218 217 217 217 219 223 229 237 244 252 260 265 269
183 190 190 216 238 232 240 247 244 111 190 223 240 226 220 221 219 227 241 231 239 241 238 243 254 256 267 277 275 274 269 250 247 249 241 239 236 230 228 229 234 242 245 248 250 250 253 253 247 242 240 237 235 235 238 242 247 252 251 248 244 239 236 236 234 231 230 228 226 224 222 220 218 217 216 215 216 218 223 230 238 245 253 259 263 268
188 225 205 223 239 234 241 254 267 282 206 198 225 227 218 219 220 223 233 232 238 246 242 242 250 258 267 275 278 278 276 275 275 274 256 237 232 227 230 236 240 245 247 248 250 250 252 255 252 246 243 241 240 240 241 243 248 252 251 248 245 240 237 236 233 231 228 226 224 222 220 219 217 215 214 214 215 219 225 231 238 246 253 258 262 269
270 252 225 234 241 240 249 258 265 271 256 219 213 221 218 218 217 218 229 234 241 255 254 247 251 259 263 266 270 273 277 279 279 277 275 269 258 243 239 241 243 245 247 247 248 251 253 255 254 252 251 252 251 248 245 245 249 252 252 251 247 241 238 236 233 229 227 224 222 220 219 217 215 214 213 213 215 220 225 231 239 246 252 257 263 271
216 241 239 251 256 256 263 265 265 269 267 254 239 234 229 220 214 222 232 234 232 245 252 253 257 262 262 262 266 272 277 277 276 278 280 282 278 264 247 248 255 255 250 247 250 253 253 255 255 256 258 260 260 256 251 250 252 254 254 252 246 241 239 236 232 228 225 222 220 218 217 215 213 212 212 213 216 220 225 232 238 245 251 256 264 273
194 247 251 258 267 266 264 264 263 264 270 271 264 262 263 251 237 237 241 234 224 240 250 255 259 262 264 266 268 272 273 273 277 279 280 282 280 272 267 274 277 274 264 255 256 257 256 255 257 260 262 261 259 257 255 255 256 257 255 251 245 241 240 235 230 227 224 221 218 217 215 213 212 212 211 212 215 219 225 231 237 244 250 256 265 274
201 241 246 251 262 258 250 253 254 256 263 267 268 277 283 273 261 255 255 245 233 242 250 252 257 263 265 264 264 266 268 271 275 275 277 280 278 276 279 279 277 276 272 267 265 264 262 260 259 260 260 259 259 258 258 258 258 257 254 249 244 243 241 236 231 227 223 219 217 215 213 212 211 210 210 211 214 218 224 230 236 243 249 256 267 273
206 233 235 237 248 243 240 243 244 249 260 265 271 271 261 257 260 261 260 254 246 249 254 254 255 253 251 256 259 262 266 268 268 270 273 274 274 277 282 276 271 272 273 273 271 269 269 268 265 264 263 262 262 261 261 261 259 256 252 248 246 244 241 236 230 226 222 218 216 213 211 210 209 208 208 210 213 217 223 230 236 242 249 256 265 270
195 217 212 217 237 239 236 241 244 250 259 257 250 247 244 247 255 258 258 256 252 252 254 252 245 240 247 255 260 264 265 262 260 262 265 268 272 277 277 272 271 273 273 275 275 273 274 274 273 271 270 268 267 267 267 265 262 258 254 250 248 246 241 235 229 224 220 216 214 212 210 209 207 207 207 209 213 216 222 230 236 241 249 256 263 268
201 216 221 219 237 242 237 242 248 239 234 234 232 235 240 243 246 247 249 252 251 250 248 250 256 260 260 258 257 259 261 260 262 264 265 269 273 277 276 275 275 276 276 278 278 277 277 277 275 275 276 276 273 270 268 265 261 258 254 251 249 247 242 235 228 223 219 215 214 211 209 207 205 205 207 208 211 217 223 230 235 241 248 255 261 266
213 219 227 224 232 241 235 239 242 229 228 238 237 230 230 235 239 245 250 253 254 253 252 253 256 257 257 257 257 257 258 262 267 272 272 273 272 272 273 275 276 277 278 278 278 278 278 274 272 275 279 281 277 271 266 263 260 256 252 251 249 246 241 234 227 222 218 214 212 210 208 206 204 204 206 208 211 218 225 230 235 240 247 253 259 264
221 224 224 223 228 235 219 216 228 238 241 221 213 216 226 233 238 247 253 252 248 249 250 251 250 250 253 256 257 257 260 264 271 274 273 272 271 268 267 269 273 275 275 274 276 277 275 272 273 276 278 278 277 273 268 265 261 257 253 250 248 243 238 232 225 220 216 214 212 209 207 205 204 204 206 208 213 220 225 230 235 239 246 252 256 262
217 222 223 226 223 222 224 221 229 254 264 171 187 214 222 223 224 231 246 246 238 237 243 247 249 250 250 253 255 258 262 267 273 271 268 268 268 266 264 266 269 271 272 274 275 274 273 273 272 271 271 272 273 273 273 269 262 255 251 247 244 238 233 228 223 219 216 213 211 209 206 205 205 206 207 210 216 222 226 230 235 239 245 250 255 260
210 212 217 228 221 210 231 236 226 242 237 200 209 224 225 226 226 231 246 247 224 215 238 243 245 247 247 250 255 258 262 264 259 260 263 266 267 265 263 264 266 267 270 273 274 272 269 267 264 267 270 270 267 267 269 266 258 249 244 240 237 233 228 223 220 218 214 211 209 207 205 205 206 208 210 214 219 224 229 233 235 239 244 249 254 259
218 216 216 228 227 214 232 239 219 231 230 202 214 226 230 235 236 239 251 250 177 203 238 242 244 246 247 248 251 255 259 256 247 250 256 262 266 267 265 265 265 266 267 267 266 266 263 258 259 266 267 264 262 262 262 260 251 242 237 235 232 229 224 221 218 215 212 209 207 205 204 205 207 210 214 219 223 228 233 236 238 241 244 247 252 258
220 217 216 226 228 220 230 239 229 237 225 195 211 222 228 235 238 240 250 232 163 210 231 237 244 247 246 247 248 251 252 245 247 253 256 260 266 269 270 271 268 264 261 258 259 260 256 254 258 263 264 265 265 261 258 255 247 239 235 232 227 225 223 220 217 213 210 207 204 203 204 205 207 212 217 222 228 232 236 238 240 242 245 247 252 260
216 209 211 222 224 221 228 235 240 240 210 192 215 222 225 233 237 239 246 233 206 221 228 231 240 245 246 250 251 249 251 252 254 258 260 263 267 270 272 272 267 260 257 255 255 254 252 255 258 261 262 262 261 259 256 251 244 238 233 228 225 224 222 218 214 210 207 205 203 202 203 204 207 211 217 223 229 234 237 238 240 243 246 249 255 265
208 204 209 217 221 224 227 233 246 243 201 194 222 227 223 229 237 233 239 240 239 240 239 239 244 247 248 252 253 254 258 261 262 263 262 262 264 266 268 268 264 259 256 254 253 252 254 256 256 256 257 256 255 255 253 247 241 236 231 226 225 223 218 213 211 208 205 203 202 201 202 203 206 211 216 223 229 233 235 237 239 242 245 249 257 269
192 200 211 208 209 223 229 226 238 237 186 197 220 227 216 219 237 240 243 246 247 250 250 247 249 251 251 254 257 259 263 264 264 263 261 260 262 263 264 265 265 262 259 256 256 258 259 257 254 254 256 254 253 252 248 243 238 233 228 226 223 219 214 212 209 205 202 201 200 200 200 202 206 210 216 223 228 229 232 234 237 239 241 248 258 271
202 204 226 214 193 214 227 219 231 254 208 204 214 222 213 220 231 238 244 251 252 254 256 255 256 257 258 261 263 264 266 265 262 262 262 261 261 261 261 263 266 265 261 258 259 260 259 254 252 254 254 251 251 251 247 243 237 229 226 223 219 214 211 210 206 202 200 199 198 199 200 202 205 209 214 219 223 224 227 230 233 236 240 248 259 272
285 315 305 292 249 243 266 273 286 320 302 235 228 238 241 239 242 249 256 261 261 263 265 267 269 270 271 272 272 268 266 264 263 263 263 262 261 261 261 265 269 269 266 263 262 260 255 252 252 254 254 252 251 251 248 242 234 229 225 221 217 214 210 207 203 200 197 196 196 198 200 202 204 207 211 215 217 219 223 226 230 234 239 247 258 269
306 323 315 305 314 310 306 313 328 334 327 304 281 272 269 271 281 291 294 293 293 294 296 299 302 302 301 303 305 299 289 284 281 278 275 273 271 270 269 269 271 271 267 266 266 262 256 251 250 252 253 253 253 252 248 241 234 231 228 222 218 215 210 205 200 197 195 195 195 197 200 201 203 205 207 210 212 214 218 222 225 230 236 245 255 265
306 320 318 307 313 311 309 349 353 331 316 313 309 304 302 304 310 317 319 317 318 319 318 319 322 323 321 323 327 324 315 310 309 306 301 295 291 288 283 278 276 273 270 270 270 265 259 253 252 254 254 255 255 254 247 239 232 229 227 223 219 213 208 203 198 195 194 193 194 196 199 200 202 203 204 205 207 210 213 217 220 225 231 239 250 262
308 323 327 312 303 297 293 312 316 303 295 296 296 299 310 320 325 326 322 317 317 319 318 317 318 319 319 318 320 319 314 312 311 309 307 305 303 300 295 289 285 282 280 278 273 268 264 262 261 259 258 258 259 255 246 236 230 226 224 223 219 211 204 200 197 195 193 193 194 196 197 198 199 200 201 202 203 206 210 212 213 219 225 231 242 257
289 298 299 294 293 292 289 293 296 292 290 291 295 307 322 326 325 323 319 317 317 318 318 315 313 312 310 309 309 308 304 302 302 302 302 302 301 298 296 295 293 290 286 283 279 276 273 270 267 264 263 262 260 253 243 236 231 227 223 220 217 210 202 198 196 195 193 192 194 194 194 195 197 196 196 198 199 202 205 206 208 212 218 223 230 248
268 269 273 280 282 279 281 287 291 291 288 288 294 309 319 320 320 320 317 316 316 314 312 309 306 305 304 302 302 299 294 293 295 296 295 294 292 292 293 294 292 289 286 285 282 278 274 272 269 266 264 262 258 251 243 236 231 227 222 218 214 208 202 197 194 193 193 193 193 192 192 193 193 193 193 194 197 199 199 200 203 206 208 212 222 249
265 265 265 267 271 273 274 276 278 277 275 285 299 311 315 314 315 314 310 309 308 306 305 303 302 302 302 300 298 295 292 291 292 292 290 288 288 288 289 288 286 284 283 282 279 275 273 271 267 262 261 260 256 249 241 234 230 226 220 216 212 207 203 198 194 193 193 192 191 190 191 191 191 190 190 191 194 196 195 195 199 200 199 201 204 228